Location: Astronomy Club of Akron Observatory
(40.9700°N, 81.5606°W)
Time: 12:28:33
(UTC-05:00)

Daily predictions for brighter satellites

Satellite Brightness Start Highest point End
(mag) Time Altitude Azimuth Time Altitude Azimuth Time Altitude Azimuth
Cosmos 1151 Rocket 3.0 17:55:06 10° N 17:59:24 87° E 18:03:43 10° S
Cosmos 2219 Rocket 3.4 17:57:16 10° SW 18:02:35 42° WNW 18:07:55 10° N
Cosmos 2058 2.9 18:00:40 10° S 18:04:43 64° E 18:08:46 10° NNE
Meteor 1-11 4.3 18:00:03 10° S 18:05:42 69° E 18:11:27 10° NNE
Cosmos 1184 Rocket 4.4 18:03:43 10° SE 18:06:00 17° E 18:08:17 10° NE
Cosmos 1726 2.5 18:04:03 10° NNW 18:07:50 71° W 18:11:35 10° S
Cosmos 1125 Rocket 4.4 18:02:48 10° NNW 18:07:53 56° WSW 18:12:56 10° S
Cosmos 2279 Rocket 4.0 18:01:53 10° N 18:08:04 64° E 18:14:14 10° SSE
MONITOR-E 4.4 18:06:06 10° SSE 18:09:10 50° ENE 18:12:15 10° N
Cosmos 2333 Rocket 3.3 18:08:05 10° SW 18:13:27 44° WNW 18:18:52 10° NNE
Cosmos 1461 2.8 18:10:12 10° SSW 18:14:23 89° SE 18:18:28 10° NNE
Cosmos 304 Rocket 3.7 18:10:10 10° SSW 18:14:57 76° ESE 18:19:47 10° NNE
Lacrosse 5 rocket 2.8 18:12:10 10° WNW 18:15:44 39° SW 18:19:28 10° SSE
FREGAT/IRIS 4.5 18:14:50 10° E 18:16:23 13° ENE 18:17:55 10° NE
Cosmos 2278 Rocket 3.2 18:13:34 10° NNW 18:19:04 52° WSW 18:24:33 10° S
Cosmos 1242 Rocket 4.2 18:17:32 10° NE 18:19:19 13° ENE 18:21:05 10° E
Tiangong 1 3.0 18:18:49 10° S 18:20:47 16° SSE 18:22:41 10° ESE
Cosmos 1455 2.9 18:17:37 10° NNE 18:21:02 31° ENE 18:24:28 10° SE
Cosmos 1805 Rocket 3.6 18:17:36 10° S 18:21:58 59° E 18:26:22 10° NNE
Cosmos 1356 Rocket 3.6 18:20:08 10° SSE 18:23:56 45° E 18:27:46 10° NNE
SKYMED 2 3.6 18:21:35 10° NNE 18:25:54 64° E 18:30:11 10° S
Nadezhda 4 Rocket 4.3 18:21:10 10° SSE 18:27:06 47° E 18:33:07 10° NNE
Cosmos 2242 Rocket 4.4 18:25:57 10° NNE 18:29:50 29° ENE 18:33:44 10° SE
Thor Agena Rocket 4.1 18:25:00 10° N 18:30:09 62° WNW 18:35:13 10° SSW
Cosmos 1538 Rocket 4.0 18:25:24 10° S 18:30:39 70° ESE 18:36:00 10° NNE
Sich 1 3.3 18:28:31 10° SSE 18:32:47 49° E 18:37:05 10° NNE
Cosmos 1703 3.2 18:32:14 10° S 18:36:06 88° E 18:40:01 10° N
Coronas F rocket 1.8 18:35:28 10° SSE 18:37:36 29° E 18:37:55 28° ENE
Cosmos 2237 Rocket 3.7 18:37:22 10° WSW 18:42:26 34° WNW 18:47:34 10° N
SOZ 4.1 18:41:37 10° SW 18:43:45 75° SE 18:44:55 27° ENE
SJ-6B 3.3 18:40:22 10° SE 18:44:12 39° ENE 18:48:04 10° N
Cosmos 1633 Rocket 3.1 18:40:17 10° S 18:44:36 59° E 18:48:55 10° NNE
Cosmos 1680 Rocket 4.2 18:40:06 10° SSE 18:44:37 31° E 18:47:47 17° NE
Cosmos 2369 Rocket 3.4 18:41:31 10° N 18:45:46 21° NE 18:47:04 20° ENE
NOSS 3-1 (C) 4.5 18:43:54 10° SSE 18:48:17 23° ESE 18:50:00 20° E
CZ-4 R/B 4.5 18:45:45 10° SW 18:48:27 18° W 18:51:10 10° NW
Cosmos 1092 Rocket 4.1 18:44:22 10° SSE 18:50:28 52° E 18:56:35 10° NNE
SL-16 R/B 2.6 18:45:50 10° SW 18:51:27 64° WNW 18:57:05 10° NNE
Lacrosse 5 3.8 18:52:11 10° NNW 18:54:49 14° N 18:56:21 12° NNE
USA 215 3.5 18:56:43 19° E 19:01:17 51° NNE 19:07:35 10° NW
ALOS 2.7 18:57:42 10° SE 19:01:59 38° ENE 19:06:19 10° N
Cosmos 773 Rocket 3.9 18:56:50 10° SSW 19:02:00 88° ESE 19:07:15 10° NNE
Meteor 1-28 Rocket 3.7 19:01:41 10° N 19:05:21 58° WNW 19:09:01 10° SSW
Abrixas 4.3 19:03:58 10° WNW 19:06:14 20° N 19:06:25 20° N
Cosmos 1862 Rocket 3.8 19:04:41 10° N 19:08:52 42° ENE 19:12:59 10° SSE
METEOR-M 4.1 19:04:12 10° SSE 19:09:33 88° ENE 19:14:57 10° NNW
FENGYUN 3A 3.8 19:06:35 10° SE 19:11:43 49° ENE 19:16:53 10° N
Cosmos 292 Rocket 3.7 19:07:02 10° S 19:11:44 65° ESE 19:14:24 25° NNE
Genesis I 4.5 19:10:13 10° S 19:12:42 26° SE 19:12:42 26° SE
COSMO-SKYMED 1 4.0 19:09:51 10° N 19:13:51 37° WNW 19:17:51 10° SW
NOAA 12 4.2 19:09:12 10° S 19:14:26 78° WSW 19:19:44 10° NNW
Cosmos 2112 Rocket 4.0 19:16:15 10° S 19:21:20 58° ESE 19:23:17 36° NE
Cosmos 1869 3.6 19:20:19 10° NNW 19:24:21 70° W 19:28:21 10° S
Cosmos 1943 3.5 19:23:08 10° S 19:28:26 43° ESE 19:28:35 43° ESE
Lacrosse 4 Rocket 1.9 19:25:14 10° NW 19:29:13 55° WSW 19:33:02 11° SSE
Cosmos 1626 4.4 19:26:16 10° SW 19:29:23 25° WNW 19:32:31 10° NNW
ATLAS 5 CENTAUR R/B 3.6 19:25:30 10° NNW 19:29:30 24° NNE 19:29:30 24° NNE
Cosmos 1933 Rocket 3.5 19:28:43 10° S 19:33:10 89° W 19:35:24 29° N
Resurs 01 Rocket 1.5 19:33:01 10° SSE 19:37:27 81° ENE 19:41:55 10° N
Cosmos 1417 Rocket 4.4 19:33:08 10° N 19:39:12 56° E 19:41:58 31° SE
SL-19 R/B 4.3 19:35:24 10° SSE 19:41:14 81° WSW 19:46:51 10° NNW
H-2A ROCKET BODY 3.8 19:23:02 10° WSW 19:42:12 37° SSW 19:45:25 23° SSE
Cosmos 1943 Rocket 3.8 19:42:28 10° N 19:44:32 20° NNE 19:44:32 20° NNE
USA 229 DEB 4.2 19:40:53 10° SW 19:47:36 57° NW 19:51:58 23° NNE
USA 229 4.2 19:40:58 10° SW 19:47:42 58° NW 19:52:02 24° NNE
Iridium 4 Rocket 4.2 19:45:55 10° SSW 19:50:07 42° W 19:54:08 10° NNW
Cosmos 1627 Rocket 4.4 19:44:28 10° S 19:50:39 83° W 19:56:50 10° N
Cosmos 1655 Rocket 3.9 19:45:09 10° S 19:51:31 77° E 19:57:52 10° N
Spot 2 Rocket 3.5 19:46:42 10° S 19:51:44 77° WSW 19:56:48 10° NNW
Cosmos 1242 Rocket 4.3 19:51:19 10° NNW 19:54:26 31° W 19:57:33 10° SSW
Cosmos 1603 4.4 19:51:00 10° SW 19:56:27 51° WNW 19:59:29 25° N
Tiangong 1 4.0 19:53:33 10° WSW 19:54:18 16° WSW 19:54:18 16° WSW
CZ-4C R/B 3.9 19:51:48 10° NNW 19:56:24 27° NNE 19:56:24 27° NNE
NOSS 3-1 (A) 3.6 19:55:34 10° SSW 20:00:05 51° SSE 20:00:05 51° SSE
S3M 4.4 20:07:32 10° N 20:12:05 49° N 20:12:05 49° N
Cosmos 2026 Rocket 4.4 20:09:39 10° SSW 20:15:45 59° W 20:21:48 10° N
Cosmos 2369 Rocket 3.0 20:24:41 10° NNW 20:28:57 48° WNW 20:28:57 48° WNW
NOSS 3-1 (C) 4.0 20:32:45 10° SW 20:37:28 51° W 20:37:28 51° W
Lacrosse 5 4.3 20:34:42 10° NNW 20:35:34 14° NNW 20:35:34 14° NNW
USA 215 3.8 20:44:05 51° SW 20:44:15 51° SW 20:50:37 10° NW
ATLAS 5 CENTAUR R/B 4.5 21:09:30 10° NW 21:11:05 19° NW 21:11:05 19° NW
